Wetterdaten: Samstag, 31.01.2015
Datum Zeit Auen-Temp. Temp. -10 cm Luftfeuchte Luftfeuchte Luftdruck Regen Wind Richtung Richtung Taupunkt Windchill Windben
31.01.2015 00:00 -2,3 C 1,5 C 71 % 71 % 979,7 hPa 0,0 l/m 5,1 km/h (1 Bft) W-SW 247 -6,8 C -4,8 C 4,8 km/h (1 Bft)
31.01.2015 00:05 -2,4 C 1,5 C 71 % 71 % 979,7 hPa 0,0 l/m 3,9 km/h (1 Bft) NW 315 -6,9 C -4,2 C 3,5 km/h (1 Bft)
31.01.2015 00:10 -2,4 C 1,5 C 71 % 72 % 979,9 hPa 0,0 l/m 3,7 km/h (1 Bft) W-SW 247 -6,9 C -4,2 C 4,5 km/h (1 Bft)
31.01.2015 00:15 -2,3 C 1,5 C 72 % 72 % 979,9 hPa 0,0 l/m 4,2 km/h (1 Bft) W 270 -6,6 C -4,6 C 7,9 km/h (2 Bft)
31.01.2015 00:20 -2,3 C 1,5 C 72 % 72 % 979,9 hPa 0,0 l/m 4,7 km/h (1 Bft) W-SW 247 -6,6 C -4,8 C 4,7 km/h (1 Bft)
31.01.2015 00:25 -2,3 C 1,5 C 73 % 73 % 979,9 hPa 0,0 l/m 5,6 km/h (1 Bft) W 270 -6,5 C -5,3 C 16,3 km/h (3 Bft)
31.01.2015 00:30 -2,4 C 1,5 C 74 % 74 % 980,1 hPa 0,0 l/m 6,1 km/h (2 Bft) SW 225 -6,4 C -5,6 C 6,9 km/h (2 Bft)
31.01.2015 00:35 -2,3 C 1,5 C 74 % 74 % 980,1 hPa 0,0 l/m 6,6 km/h (2 Bft) W-NW 292 -6,3 C -6,0 C 11,3 km/h (2 Bft)
31.01.2015 00:40 -2,3 C 1,5 C 75 % 75 % 980,1 hPa 0,0 l/m 6,0 km/h (2 Bft) W-SW 247 -6,1 C -5,4 C 8,2 km/h (2 Bft)
31.01.2015 00:45 -2,2 C 1,5 C 75 % 75 % 980,1 hPa 0,0 l/m 6,1 km/h (2 Bft) W-SW 247 -6,0 C -5,4 C 8,9 km/h (2 Bft)
31.01.2015 00:50 -2,1 C 1,5 C 75 % 75 % 980,3 hPa 0,0 l/m 6,8 km/h (2 Bft) W-SW 247 -5,9 C -6,1 C 13,5 km/h (3 Bft)
31.01.2015 00:55 -2,1 C 1,5 C 75 % 75 % 980,3 hPa 0,0 l/m 6,8 km/h (2 Bft) SW 225 -5,9 C -6,1 C 7,1 km/h (2 Bft)
31.01.2015 01:00 -2,1 C 1,5 C 75 % 75 % 980,3 hPa 0,0 l/m 6,6 km/h (2 Bft) W-SW 247 -5,9 C -5,7 C 9,2 km/h (2 Bft)
31.01.2015 01:05 -2,2 C 1,5 C 76 % 76 % 980,3 hPa 0,0 l/m 7,1 km/h (2 Bft) W-SW 247 -5,8 C -6,5 C 8,4 km/h (2 Bft)
31.01.2015 01:10 -2,2 C 1,5 C 76 % 76 % 980,8 hPa 0,0 l/m 7,7 km/h (2 Bft) W-NW 292 -5,8 C -7,5 C 16,3 km/h (3 Bft)
31.01.2015 01:15 -2,3 C 1,5 C 76 % 76 % 980,8 hPa 0,0 l/m 6,8 km/h (2 Bft) W 270 -5,9 C -6,2 C 9,8 km/h (2 Bft)
31.01.2015 01:20 -2,3 C 1,5 C 77 % 77 % 980,8 hPa 0,0 l/m 6,9 km/h (2 Bft) W-SW 247 -5,8 C -6,5 C 9,5 km/h (2 Bft)
31.01.2015 01:25 -2,3 C 1,5 C 77 % 77 % 980,8 hPa 0,0 l/m 7,2 km/h (2 Bft) W-SW 247 -5,8 C -7,0 C 6,4 km/h (2 Bft)
31.01.2015 01:30 -2,3 C 1,5 C 77 % 77 % 980,6 hPa 0,0 l/m 7,7 km/h (2 Bft) SW 225 -5,8 C -7,9 C 17,4 km/h (3 Bft)
31.01.2015 01:35 -2,2 C 1,5 C 78 % 78 % 980,6 hPa 0,0 l/m 7,2 km/h (2 Bft) W-SW 247 -5,5 C -6,9 C 5,3 km/h (1 Bft)
31.01.2015 01:40 -2,3 C 1,5 C 78 % 78 % 980,6 hPa 0,0 l/m 7,4 km/h (2 Bft) S-SW 202 -5,6 C -7,1 C 6,4 km/h (2 Bft)
31.01.2015 01:45 -2,3 C 1,5 C 78 % 78 % 980,6 hPa 0,0 l/m 7,7 km/h (2 Bft) W-SW 247 -5,6 C -7,8 C 20,1 km/h (4 Bft)
31.01.2015 01:50 -2,3 C 1,5 C 78 % 78 % 980,6 hPa 0,0 l/m 8,4 km/h (2 Bft) W 270 -5,6 C -8,9 C 8,4 km/h (2 Bft)
31.01.2015 01:55 -2,2 C 1,5 C 78 % 78 % 980,6 hPa 0,0 l/m 9,0 km/h (2 Bft) W 270 -5,5 C -9,5 C 9,2 km/h (2 Bft)
31.01.2015 02:00 -2,3 C 1,5 C 78 % 78 % 980,6 hPa 0,0 l/m 7,9 km/h (2 Bft) W 270 -5,6 C -8,1 C 9,8 km/h (2 Bft)
31.01.2015 02:05 -2,2 C 1,5 C 79 % 79 % 980,6 hPa 0,0 l/m 7,4 km/h (2 Bft) W-SW 247 -5,3 C -7,1 C 15,0 km/h (3 Bft)
31.01.2015 02:10 -2,2 C 1,5 C 79 % 79 % 980,9 hPa 0,0 l/m 7,4 km/h (2 Bft) W-SW 247 -5,3 C -7,0 C 8,7 km/h (2 Bft)
31.01.2015 02:15 -2,3 C 1,5 C 79 % 79 % 980,9 hPa 0,0 l/m 7,1 km/h (2 Bft) W 270 -5,4 C -6,6 C 11,1 km/h (2 Bft)
31.01.2015 02:20 -2,3 C 1,5 C 79 % 79 % 980,9 hPa 0,0 l/m 7,9 km/h (2 Bft) W-NW 292 -5,4 C -7,8 C 6,9 km/h (2 Bft)
31.01.2015 02:25 -2,4 C 1,6 C 80 % 80 % 980,9 hPa 0,0 l/m 6,9 km/h (2 Bft) W 270 -5,4 C -6,2 C 5,8 km/h (2 Bft)
31.01.2015 02:30 -2,4 C 1,6 C 80 % 80 % 981,3 hPa 0,0 l/m 6,1 km/h (2 Bft) W-SW 247 -5,4 C -5,4 C 10,8 km/h (2 Bft)
31.01.2015 02:35 -2,5 C 1,6 C 81 % 81 % 981,3 hPa 0,0 l/m 5,0 km/h (1 Bft) W-SW 247 -5,3 C -4,9 C 4,3 km/h (1 Bft)
31.01.2015 02:40 -2,4 C 1,6 C 81 % 81 % 981,3 hPa 0,0 l/m 5,5 km/h (1 Bft) SW 225 -5,2 C -5,1 C 5,5 km/h (1 Bft)
31.01.2015 02:45 -2,4 C 1,6 C 81 % 81 % 981,3 hPa 0,0 l/m 5,3 km/h (1 Bft) W-SW 247 -5,2 C -5,0 C 8,5 km/h (2 Bft)
31.01.2015 02:50 -2,4 C 1,6 C 82 % 82 % 981,4 hPa 0,0 l/m 5,1 km/h (1 Bft) W 270 -5,0 C -4,9 C 10,8 km/h (2 Bft)
31.01.2015 02:55 -2,3 C 1,6 C 82 % 82 % 981,4 hPa 0,0 l/m 5,3 km/h (1 Bft) W 270 -4,9 C -5,0 C 7,2 km/h (2 Bft)
31.01.2015 03:00 -2,3 C 1,6 C 82 % 82 % 981,4 hPa 0,0 l/m 5,8 km/h (2 Bft) SW 225 -4,9 C -5,3 C 6,1 km/h (2 Bft)
31.01.2015 03:05 -2,5 C 1,6 C 81 % 81 % 981,4 hPa 0,0 l/m 5,8 km/h (2 Bft) W-SW 247 -5,3 C -5,5 C 6,8 km/h (2 Bft)
31.01.2015 03:10 -2,5 C 1,5 C 81 % 81 % 981,5 hPa 0,0 l/m 5,5 km/h (1 Bft) SW 225 -5,3 C -5,3 C 6,4 km/h (2 Bft)
31.01.2015 03:15 -2,5 C 1,5 C 81 % 81 % 981,5 hPa 0,0 l/m 5,1 km/h (1 Bft) SW 225 -5,3 C -5,2 C 6,6 km/h (2 Bft)
31.01.2015 03:20 -2,4 C 1,5 C 81 % 81 % 981,5 hPa 0,0 l/m 4,7 km/h (1 Bft) NW 315 -5,2 C -4,9 C 6,8 km/h (2 Bft)
31.01.2015 03:25 -2,2 C 1,6 C 81 % 81 % 981,5 hPa 0,0 l/m 5,6 km/h (1 Bft) SW 225 -5,0 C -5,3 C 6,9 km/h (2 Bft)
31.01.2015 03:30 -2,3 C 1,6 C 81 % 81 % 981,8 hPa 0,0 l/m 6,3 km/h (2 Bft) S-SW 202 -5,1 C -5,3 C 6,0 km/h (2 Bft)
31.01.2015 03:35 -2,2 C 1,6 C 81 % 81 % 981,8 hPa 0,0 l/m 6,9 km/h (2 Bft) W 270 -5,0 C -6,2 C 6,6 km/h (2 Bft)
31.01.2015 03:40 -2,3 C 1,6 C 81 % 81 % 981,8 hPa 0,0 l/m 6,8 km/h (2 Bft) W-SW 247 -5,1 C -6,1 C 12,1 km/h (2 Bft)
31.01.2015 03:45 -2,2 C 1,6 C 81 % 81 % 981,8 hPa 0,0 l/m 6,1 km/h (2 Bft) W-SW 247 -5,0 C -5,3 C 7,1 km/h (2 Bft)
31.01.2015 03:50 -2,2 C 1,6 C 81 % 81 % 981,9 hPa 0,0 l/m 6,1 km/h (2 Bft) W-NW 292 -5,0 C -5,2 C 8,0 km/h (2 Bft)
31.01.2015 03:55 -2,3 C 1,6 C 81 % 81 % 981,9 hPa 0,0 l/m 5,1 km/h (1 Bft) W 270 -5,1 C -4,8 C 4,2 km/h (1 Bft)
31.01.2015 04:00 -2,3 C 1,6 C 81 % 81 % 981,9 hPa 0,0 l/m 5,5 km/h (1 Bft) S 180 -5,1 C -4,9 C 7,6 km/h (2 Bft)
31.01.2015 04:05 -2,3 C 1,6 C 81 % 81 % 981,9 hPa 0,0 l/m 6,3 km/h (2 Bft) W-SW 247 -5,1 C -5,3 C 8,0 km/h (2 Bft)
31.01.2015 04:10 -2,3 C 1,6 C 81 % 81 % 982,1 hPa 0,0 l/m 6,6 km/h (2 Bft) W 270 -5,1 C -5,7 C 5,8 km/h (2 Bft)
31.01.2015 04:15 -2,3 C 1,6 C 82 % 82 % 982,1 hPa 0,0 l/m 6,1 km/h (2 Bft) W-SW 247 -4,9 C -5,3 C 6,6 km/h (2 Bft)
31.01.2015 04:20 -2,3 C 1,6 C 82 % 82 % 982,1 hPa 0,0 l/m 5,6 km/h (1 Bft) W 270 -4,9 C -5,1 C 7,4 km/h (2 Bft)
31.01.2015 04:25 -2,3 C 1,6 C 82 % 82 % 982,1 hPa 0,0 l/m 5,8 km/h (2 Bft) W 270 -4,9 C -5,3 C 10,6 km/h (2 Bft)
31.01.2015 04:30 -2,3 C 1,6 C 82 % 82 % 981,9 hPa 0,0 l/m 5,8 km/h (2 Bft) S 180 -4,9 C -5,3 C 15,4 km/h (3 Bft)
31.01.2015 04:35 -2,2 C 1,6 C 81 % 81 % 981,9 hPa 0,0 l/m 6,6 km/h (2 Bft) SW 225 -5,0 C -5,8 C 10,3 km/h (2 Bft)
31.01.2015 04:40 -2,3 C 1,6 C 81 % 81 % 981,9 hPa 0,0 l/m 6,3 km/h (2 Bft) W 270 -5,1 C -5,5 C 9,7 km/h (2 Bft)
31.01.2015 04:45 -2,3 C 1,5 C 81 % 81 % 981,9 hPa 0,0 l/m 6,0 km/h (2 Bft) W-SW 247 -5,1 C -5,4 C 7,4 km/h (2 Bft)
31.01.2015 04:50 -2,3 C 1,5 C 81 % 81 % 981,8 hPa 0,0 l/m 6,1 km/h (2 Bft) NW 315 -5,1 C -5,6 C 7,9 km/h (2 Bft)
31.01.2015 04:55 -2,2 C 1,5 C 81 % 81 % 981,8 hPa 0,0 l/m 6,8 km/h (2 Bft) W 270 -5,0 C -6,2 C 6,6 km/h (2 Bft)
31.01.2015 05:00 -2,2 C 1,5 C 80 % 80 % 981,8 hPa 0,0 l/m 7,1 km/h (2 Bft) W-SW 247 -5,2 C -6,6 C 11,6 km/h (2 Bft)
31.01.2015 05:05 -2,2 C 1,5 C 79 % 79 % 981,8 hPa 0,0 l/m 6,1 km/h (2 Bft) W 270 -5,3 C -5,3 C 9,3 km/h (2 Bft)
31.01.2015 05:10 -2,2 C 1,5 C 79 % 79 % 982,1 hPa 0,0 l/m 6,1 km/h (2 Bft) SW 225 -5,3 C -5,3 C 6,1 km/h (2 Bft)
31.01.2015 05:15 -2,3 C 1,5 C 79 % 79 % 982,1 hPa 0,0 l/m 5,8 km/h (2 Bft) W-SW 247 -5,4 C -5,1 C 7,7 km/h (2 Bft)
31.01.2015 05:20 -2,3 C 1,5 C 79 % 79 % 982,1 hPa 0,0 l/m 5,3 km/h (1 Bft) W 270 -5,4 C -5,0 C 3,9 km/h (1 Bft)
31.01.2015 05:25 -2,3 C 1,5 C 79 % 79 % 982,1 hPa 0,0 l/m 6,1 km/h (2 Bft) W 270 -5,4 C -5,6 C 7,4 km/h (2 Bft)
31.01.2015 05:30 -2,3 C 1,5 C 78 % 79 % 982,2 hPa 0,0 l/m 6,8 km/h (2 Bft) W-SW 247 -5,6 C -6,2 C 10,5 km/h (2 Bft)
31.01.2015 05:35 -2,2 C 1,5 C 78 % 78 % 982,2 hPa 0,0 l/m 6,9 km/h (2 Bft) SW 225 -5,5 C -6,4 C 6,1 km/h (2 Bft)
31.01.2015 05:40 -2,3 C 1,5 C 78 % 78 % 982,2 hPa 0,0 l/m 6,4 km/h (2 Bft) SW 225 -5,6 C -5,3 C 4,5 km/h (1 Bft)
31.01.2015 05:45 -2,3 C 1,5 C 78 % 78 % 982,2 hPa 0,0 l/m 5,6 km/h (1 Bft) W 270 -5,6 C -5,1 C 4,0 km/h (1 Bft)
31.01.2015 05:50 -2,3 C 1,5 C 78 % 78 % 982,4 hPa 0,0 l/m 4,7 km/h (1 Bft) SW 225 -5,6 C -4,6 C 5,5 km/h (1 Bft)
31.01.2015 05:55 -2,3 C 1,5 C 78 % 78 % 982,4 hPa 0,0 l/m 4,7 km/h (1 Bft) W 270 -5,6 C -4,6 C 6,1 km/h (2 Bft)
31.01.2015 06:00 -2,4 C 1,5 C 79 % 79 % 982,4 hPa 0,0 l/m 4,5 km/h (1 Bft) SW 225 -5,5 C -4,5 C 8,2 km/h (2 Bft)
31.01.2015 06:05 -2,5 C 1,5 C 79 % 79 % 982,4 hPa 0,0 l/m 3,9 km/h (1 Bft) W-SW 247 -5,6 C -4,2 C 3,9 km/h (1 Bft)
31.01.2015 06:10 -2,5 C 1,5 C 79 % 79 % 982,6 hPa 0,0 l/m 4,2 km/h (1 Bft) W-SW 247 -5,6 C -4,6 C 8,5 km/h (2 Bft)
31.01.2015 06:15 -2,5 C 1,5 C 79 % 79 % 982,6 hPa 0,0 l/m 4,0 km/h (1 Bft) W-SW 247 -5,6 C -4,7 C 3,9 km/h (1 Bft)
31.01.2015 06:20 -2,7 C 1,5 C 79 % 79 % 982,6 hPa 0,0 l/m 3,2 km/h (1 Bft) S 180 -5,8 C -4,2 C 0,0 km/h (0 Bft)
31.01.2015 06:25 -2,7 C 1,5 C 79 % 79 % 982,6 hPa 0,0 l/m 2,3 km/h (1 Bft) SW 225 -5,8 C -3,5 C 0,0 km/h (0 Bft)
31.01.2015 06:30 -2,7 C 1,5 C 79 % 79 % 982,6 hPa 0,0 l/m 1,6 km/h (1 Bft) S-SO 157 -5,8 C -3,4 C 3,2 km/h (1 Bft)
31.01.2015 06:35 -2,6 C 1,5 C 79 % 79 % 982,6 hPa 0,0 l/m 1,8 km/h (1 Bft) SW 225 -5,7 C -3,3 C 3,1 km/h (1 Bft)
31.01.2015 06:40 -2,5 C 1,5 C 79 % 79 % 982,6 hPa 0,0 l/m 2,9 km/h (1 Bft) W-NW 292 -5,6 C -3,9 C 5,8 km/h (2 Bft)
31.01.2015 06:45 -2,5 C 1,5 C 80 % 80 % 982,6 hPa 0,0 l/m 3,4 km/h (1 Bft) N-NW 337 -5,5 C -4,2 C 5,6 km/h (1 Bft)
31.01.2015 06:50 -2,6 C 1,5 C 80 % 80 % 982,9 hPa 0,0 l/m 3,9 km/h (1 Bft) W-SW 247 -5,6 C -4,4 C 5,5 km/h (1 Bft)
31.01.2015 06:55 -2,8 C 1,5 C 80 % 80 % 982,9 hPa 0,0 l/m 3,7 km/h (1 Bft) S 180 -5,8 C -4,5 C 4,5 km/h (1 Bft)
31.01.2015 07:00 -2,9 C 1,5 C 80 % 80 % 982,9 hPa 0,0 l/m 3,7 km/h (1 Bft) S-SO 157 -5,9 C -4,8 C 6,1 km/h (2 Bft)
31.01.2015 07:05 -2,8 C 1,5 C 80 % 80 % 982,9 hPa 0,0 l/m 3,5 km/h (1 Bft) W-SW 247 -5,8 C -4,7 C 3,9 km/h (1 Bft)
31.01.2015 07:10 -2,7 C 1,5 C 80 % 80 % 982,9 hPa 0,0 l/m 3,5 km/h (1 Bft) N 360 -5,7 C -4,7 C 5,1 km/h (1 Bft)
31.01.2015 07:15 -2,8 C 1,5 C 80 % 80 % 982,9 hPa 0,0 l/m 3,5 km/h (1 Bft) W 270 -5,8 C -4,7 C 5,0 km/h (1 Bft)
31.01.2015 07:20 -2,9 C 1,5 C 80 % 80 % 982,9 hPa 0,0 l/m 3,2 km/h (1 Bft) SW 225 -5,9 C -4,4 C 6,0 km/h (2 Bft)
31.01.2015 07:25 -2,7 C 1,5 C 80 % 80 % 982,9 hPa 0,0 l/m 3,5 km/h (1 Bft) SW 225 -5,7 C -4,7 C 5,0 km/h (1 Bft)
31.01.2015 07:30 -2,7 C 1,5 C 81 % 81 % 983,1 hPa 0,0 l/m 4,0 km/h (1 Bft) W-NW 292 -5,5 C -5,0 C 6,0 km/h (2 Bft)
31.01.2015 07:35 -2,6 C 1,5 C 81 % 81 % 983,1 hPa 0,0 l/m 5,0 km/h (1 Bft) S 180 -5,4 C -5,4 C 8,7 km/h (2 Bft)
31.01.2015 07:40 -2,5 C 1,5 C 81 % 81 % 983,1 hPa 0,0 l/m 5,6 km/h (1 Bft) W-SW 247 -5,3 C -5,6 C 5,8 km/h (2 Bft)
31.01.2015 07:45 -2,6 C 1,5 C 80 % 80 % 983,1 hPa 0,0 l/m 5,6 km/h (1 Bft) SW 225 -5,6 C -5,6 C 5,3 km/h (1 Bft)
31.01.2015 07:50 -2,6 C 1,5 C 80 % 80 % 983,2 hPa 0,0 l/m 4,8 km/h (1 Bft) W-SW 247 -5,6 C -5,2 C 4,2 km/h (1 Bft)
31.01.2015 07:55 -2,6 C 1,5 C 80 % 80 % 983,2 hPa 0,0 l/m 4,2 km/h (1 Bft) W 270 -5,6 C -5,0 C 4,3 km/h (1 Bft)
31.01.2015 08:00 -2,6 C 1,5 C 80 % 80 % 983,2 hPa 0,0 l/m 3,9 km/h (1 Bft) W-SW 247 -5,6 C -4,8 C 6,6 km/h (2 Bft)
31.01.2015 08:05 -2,5 C 1,5 C 79 % 79 % 983,2 hPa 0,0 l/m 4,7 km/h (1 Bft) W-SW 247 -5,6 C -5,2 C 5,6 km/h (1 Bft)
31.01.2015 08:10 -2,4 C 1,5 C 79 % 79 % 983,6 hPa 0,0 l/m 5,1 km/h (1 Bft) W-SW 247 -5,5 C -5,3 C 4,8 km/h (1 Bft)
31.01.2015 08:15 -2,3 C 1,5 C 79 % 79 % 983,6 hPa 0,0 l/m 4,5 km/h (1 Bft) SW 225 -5,4 C -4,7 C 4,3 km/h (1 Bft)
31.01.2015 08:20 -2,2 C 1,5 C 79 % 79 % 983,6 hPa 0,0 l/m 4,5 km/h (1 Bft) SW 225 -5,3 C -4,6 C 8,4 km/h (2 Bft)
31.01.2015 08:25 -2,3 C 1,5 C 79 % 79 % 983,6 hPa 0,0 l/m 5,1 km/h (1 Bft) W-SW 247 -5,4 C -4,9 C 5,1 km/h (1 Bft)
31.01.2015 08:30 -2,2 C 1,5 C 79 % 79 % 983,8 hPa 0,0 l/m 4,8 km/h (1 Bft) W-SW 247 -5,3 C -4,8 C 4,7 km/h (1 Bft)
31.01.2015 08:35 -2,2 C 1,5 C 78 % 78 % 983,8 hPa 0,0 l/m 4,7 km/h (1 Bft) S-SW 202 -5,5 C -4,7 C 6,3 km/h (2 Bft)
31.01.2015 08:40 -2,2 C 1,6 C 78 % 78 % 983,8 hPa 0,0 l/m 4,3 km/h (1 Bft) W-SW 247 -5,5 C -4,5 C 6,6 km/h (2 Bft)
31.01.2015 08:45 -2,2 C 1,6 C 78 % 78 % 983,8 hPa 0,0 l/m 5,3 km/h (1 Bft) W-SW 247 -5,5 C -5,0 C 4,0 km/h (1 Bft)
31.01.2015 08:50 -2,3 C 1,6 C 78 % 78 % 984,0 hPa 0,0 l/m 5,0 km/h (1 Bft) W-SW 247 -5,6 C -4,9 C 5,5 km/h (1 Bft)
31.01.2015 08:55 -2,1 C 1,6 C 78 % 78 % 984,0 hPa 0,0 l/m 4,8 km/h (1 Bft) SW 225 -5,4 C -4,7 C 8,2 km/h (2 Bft)
31.01.2015 09:00 -2,1 C 1,6 C 78 % 78 % 984,0 hPa 0,0 l/m 5,5 km/h (1 Bft) W-SW 247 -5,4 C -4,9 C 4,8 km/h (1 Bft)
31.01.2015 09:05 -1,7 C 1,6 C 77 % 77 % 984,0 hPa 0,0 l/m 4,0 km/h (1 Bft) S 180 -5,2 C -4,0 C 3,7 km/h (1 Bft)
31.01.2015 09:10 -1,7 C 1,6 C 77 % 77 % 984,1 hPa 0,0 l/m 3,4 km/h (1 Bft) W 270 -5,2 C -3,3 C 5,6 km/h (1 Bft)
31.01.2015 09:15 -1,9 C 1,6 C 77 % 77 % 984,1 hPa 0,0 l/m 3,2 km/h (1 Bft) W-SW 247 -5,4 C -3,1 C 6,0 km/h (2 Bft)
31.01.2015 09:20 -2,1 C 1,6 C 77 % 77 % 984,1 hPa 0,0 l/m 3,4 km/h (1 Bft) SW 225 -5,6 C -3,4 C 3,5 km/h (1 Bft)
31.01.2015 09:25 -2,0 C 1,6 C 77 % 77 % 984,1 hPa 0,0 l/m 3,4 km/h (1 Bft) SW 225 -5,5 C -3,6 C 1,8 km/h (1 Bft)
31.01.2015 09:30 -2,0 C 1,6 C 77 % 77 % 984,2 hPa 0,0 l/m 2,6 km/h (1 Bft) SW 225 -5,5 C -3,0 C 3,2 km/h (1 Bft)
31.01.2015 09:35 -2,4 C 1,6 C 77 % 77 % 984,2 hPa 0,0 l/m 2,3 km/h (1 Bft) W-NW 292 -5,9 C -2,9 C 4,7 km/h (1 Bft)
31.01.2015 09:40 -2,5 C 1,5 C 77 % 77 % 984,2 hPa 0,0 l/m 2,3 km/h (1 Bft) W-SW 247 -6,0 C -3,2 C 2,6 km/h (1 Bft)
31.01.2015 09:45 -2,3 C 1,5 C 77 % 77 % 984,2 hPa 0,0 l/m 3,2 km/h (1 Bft) SW 225 -5,8 C -4,2 C 4,0 km/h (1 Bft)
31.01.2015 09:50 -2,3 C 1,5 C 77 % 77 % 984,2 hPa 0,0 l/m 3,7 km/h (1 Bft) S-SW 202 -5,8 C -4,4 C 4,3 km/h (1 Bft)
31.01.2015 09:55 -2,2 C 1,5 C 77 % 77 % 984,2 hPa 0,0 l/m 3,4 km/h (1 Bft) W-SW 247 -5,7 C -4,3 C 3,4 km/h (1 Bft)
31.01.2015 10:00 -2,3 C 1,5 C 77 % 77 % 984,2 hPa 0,0 l/m 2,4 km/h (1 Bft) SW 225 -5,8 C -3,5 C 5,1 km/h (1 Bft)
31.01.2015 10:05 -2,3 C 1,5 C 77 % 77 % 984,2 hPa 0,0 l/m 1,3 km/h (1 Bft) W-SW 247 -5,8 C -3,3 C 0,0 km/h (0 Bft)
31.01.2015 10:10 -2,4 C 1,5 C 77 % 77 % 984,2 hPa 0,0 l/m 1,0 km/h (0 Bft) SW 225 -5,9 C -3,4 C 1,9 km/h (1 Bft)
31.01.2015 10:15 -2,3 C 1,5 C 77 % 77 % 984,2 hPa 0,0 l/m 0,6 km/h (0 Bft) W 270 -5,8 C -3,4 C 2,1 km/h (1 Bft)
31.01.2015 10:20 -2,2 C 1,5 C 76 % 77 % 984,2 hPa 0,0 l/m 1,3 km/h (1 Bft) W 270 -5,8 C -3,1 C 3,2 km/h (1 Bft)
31.01.2015 10:25 -2,0 C 1,5 C 75 % 77 % 984,2 hPa 0,0 l/m 2,3 km/h (1 Bft) NW 315 -5,8 C -3,1 C 2,9 km/h (1 Bft)
31.01.2015 10:30 -1,8 C 1,5 C 74 % 77 % 984,2 hPa 0,0 l/m 2,7 km/h (1 Bft) W-SW 247 -5,8 C -3,3 C 3,7 km/h (1 Bft)
31.01.2015 10:35 -1,9 C 1,5 C 73 % 76 % 984,2 hPa 0,0 l/m 2,6 km/h (1 Bft) S 180 -6,1 C -3,1 C 3,9 km/h (1 Bft)
31.01.2015 10:40 -1,8 C 1,5 C 73 % 76 % 984,2 hPa 0,0 l/m 2,3 km/h (1 Bft) W 270 -6,0 C -2,7 C 0,0 km/h (0 Bft)
31.01.2015 10:45 -1,9 C 1,5 C 73 % 75 % 984,2 hPa 0,0 l/m 1,9 km/h (1 Bft) S-SW 202 -6,1 C -2,6 C 4,0 km/h (1 Bft)
31.01.2015 10:50 -1,8 C 1,5 C 72 % 75 % 984,3 hPa 0,0 l/m 1,8 km/h (1 Bft) W 270 -6,2 C -2,6 C 6,9 km/h (2 Bft)
31.01.2015 10:55 -1,3 C 1,6 C 70 % 75 % 984,3 hPa 0,0 l/m 3,7 km/h (1 Bft) W-SW 247 -6,0 C -3,4 C 5,3 km/h (1 Bft)
31.01.2015 11:00 -1,1 C 1,6 C 69 % 74 % 984,3 hPa 0,0 l/m 4,5 km/h (1 Bft) SW 225 -6,0 C -3,7 C 3,7 km/h (1 Bft)
31.01.2015 11:05 -1,1 C 1,6 C 68 % 73 % 984,3 hPa 0,0 l/m 4,2 km/h (1 Bft) W-SW 247 -6,2 C -2,9 C 2,7 km/h (1 Bft)
31.01.2015 11:10 -1,2 C 1,6 C 68 % 73 % 984,4 hPa 0,0 l/m 3,2 km/h (1 Bft) W-SW 247 -6,3 C -1,9 C 1,6 km/h (1 Bft)
31.01.2015 11:15 -1,1 C 1,6 C 68 % 72 % 984,4 hPa 0,0 l/m 2,7 km/h (1 Bft) S-SW 202 -6,2 C -1,8 C 3,9 km/h (1 Bft)
31.01.2015 11:20 -1,0 C 1,6 C 68 % 72 % 984,4 hPa 0,0 l/m 2,4 km/h (1 Bft) W-NW 292 -6,1 C -1,6 C 2,3 km/h (1 Bft)
31.01.2015 11:25 -1,0 C 1,6 C 68 % 72 % 984,4 hPa 0,0 l/m 1,8 km/h (1 Bft) W-SW 247 -6,1 C -1,5 C 2,4 km/h (1 Bft)
31.01.2015 11:30 -1,1 C 1,6 C 67 % 71 % 984,4 hPa 0,0 l/m 1,8 km/h (1 Bft) W 270 -6,4 C -1,6 C 2,7 km/h (1 Bft)
31.01.2015 11:35 -0,8 C 1,6 C 67 % 71 % 984,4 hPa 0,0 l/m 1,9 km/h (1 Bft) W 270 -6,1 C -1,6 C 4,5 km/h (1 Bft)
31.01.2015 11:40 -0,6 C 1,6 C 66 % 70 % 984,4 hPa 0,0 l/m 2,4 km/h (1 Bft) W 270 -6,1 C -1,5 C 2,1 km/h (1 Bft)
31.01.2015 11:45 -0,4 C 1,6 C 65 % 69 % 984,4 hPa 0,0 l/m 2,9 km/h (1 Bft) W-SW 247 -6,2 C -1,7 C 4,2 km/h (1 Bft)
31.01.2015 11:50 -0,2 C 1,6 C 63 % 68 % 984,2 hPa 0,0 l/m 2,4 km/h (1 Bft) W-SW 247 -6,4 C -1,1 C 5,0 km/h (1 Bft)
31.01.2015 11:55 0,0 C 1,6 C 59 % 67 % 984,2 hPa 0,0 l/m 3,7 km/h (1 Bft) W 270 -7,0 C -1,8 C 4,7 km/h (1 Bft)
31.01.2015 12:00 0,1 C 1,6 C 59 % 66 % 984,2 hPa 0,0 l/m 4,2 km/h (1 Bft) W 270 -6,9 C -2,0 C 3,4 km/h (1 Bft)
31.01.2015 12:05 0,1 C 1,6 C 59 % 65 % 984,2 hPa 0,0 l/m 3,5 km/h (1 Bft) SW 225 -6,9 C -1,3 C 4,2 km/h (1 Bft)
31.01.2015 12:10 0,0 C 1,6 C 59 % 65 % 984,3 hPa 0,0 l/m 3,2 km/h (1 Bft) SW 225 -7,0 C -1,2 C 4,0 km/h (1 Bft)
31.01.2015 12:15 0,2 C 1,6 C 59 % 64 % 984,3 hPa 0,0 l/m 2,7 km/h (1 Bft) S-SW 202 -6,8 C -0,7 C 2,6 km/h (1 Bft)
31.01.2015 12:20 0,1 C 1,6 C 59 % 65 % 984,3 hPa 0,0 l/m 2,1 km/h (1 Bft) N-NW 337 -6,9 C -0,3 C 1,8 km/h (1 Bft)
31.01.2015 12:25 0,3 C 1,6 C 58 % 65 % 984,3 hPa 0,0 l/m 2,4 km/h (1 Bft) NW 315 -7,0 C -0,3 C 4,7 km/h (1 Bft)
31.01.2015 12:30 0,5 C 1,6 C 58 % 64 % 984,4 hPa 0,0 l/m 3,4 km/h (1 Bft) W-SW 247 -6,8 C -0,9 C 5,1 km/h (1 Bft)
31.01.2015 12:35 0,6 C 1,6 C 58 % 64 % 984,4 hPa 0,0 l/m 3,9 km/h (1 Bft) W-SW 247 -6,7 C -1,0 C 4,8 km/h (1 Bft)
31.01.2015 12:40 0,6 C 1,6 C 58 % 64 % 984,4 hPa 0,0 l/m 3,4 km/h (1 Bft) W-NW 292 -6,7 C -0,4 C 3,1 km/h (1 Bft)
31.01.2015 12:45 0,7 C 1,5 C 58 % 64 % 984,4 hPa 0,0 l/m 3,1 km/h (1 Bft) W-NW 292 -6,6 C -0,2 C 2,1 km/h (1 Bft)
31.01.2015 12:50 0,8 C 1,5 C 58 % 64 % 984,4 hPa 0,0 l/m 2,9 km/h (1 Bft) W-SW 247 -6,5 C -0,1 C 2,3 km/h (1 Bft)
31.01.2015 12:55 0,7 C 1,5 C 58 % 63 % 984,4 hPa 0,0 l/m 2,6 km/h (1 Bft) W 270 -6,6 C 0,3 C 3,1 km/h (1 Bft)
31.01.2015 13:00 0,8 C 1,5 C 57 % 63 % 984,4 hPa 0,0 l/m 3,2 km/h (1 Bft) W-NW 292 -6,7 C -0,2 C 3,5 km/h (1 Bft)
31.01.2015 13:05 0,7 C 1,5 C 57 % 63 % 984,4 hPa 0,0 l/m 3,2 km/h (1 Bft) NW 315 -6,8 C -0,2 C 0,0 km/h (0 Bft)
31.01.2015 13:10 0,5 C 1,5 C 57 % 62 % 984,4 hPa 0,0 l/m 2,4 km/h (1 Bft) W 270 -7,0 C 0,3 C 3,1 km/h (1 Bft)
31.01.2015 13:15 0,6 C 1,5 C 57 % 63 % 984,4 hPa 0,0 l/m 2,7 km/h (1 Bft) NW 315 -6,9 C 0,0 C 3,7 km/h (1 Bft)
31.01.2015 13:20 0,8 C 1,5 C 56 % 62 % 984,4 hPa 0,0 l/m 3,9 km/h (1 Bft) W-SW 247 -7,0 C -0,7 C 7,4 km/h (2 Bft)
31.01.2015 13:25 0,8 C 1,5 C 56 % 61 % 984,4 hPa 0,0 l/m 4,3 km/h (1 Bft) W 270 -7,0 C -0,8 C 8,4 km/h (2 Bft)
31.01.2015 13:30 0,8 C 1,5 C 56 % 61 % 984,2 hPa 0,0 l/m 4,7 km/h (1 Bft) W 270 -7,0 C -1,0 C 3,7 km/h (1 Bft)
31.01.2015 13:35 0,9 C 1,5 C 57 % 61 % 984,2 hPa 0,0 l/m 4,2 km/h (1 Bft) W 270 -6,6 C -0,7 C 4,0 km/h (1 Bft)
31.01.2015 13:40 1,0 C 1,5 C 58 % 62 % 984,2 hPa 0,0 l/m 3,4 km/h (1 Bft) NW 315 -6,3 C -0,2 C 3,7 km/h (1 Bft)
31.01.2015 13:45 1,1 C 1,5 C 58 % 63 % 984,2 hPa 0,0 l/m 3,9 km/h (1 Bft) NW 315 -6,2 C -0,3 C 5,3 km/h (1 Bft)
31.01.2015 13:50 1,5 C 1,5 C 59 % 63 % 984,5 hPa 0,0 l/m 3,9 km/h (1 Bft) W-SW 247 -5,6 C -0,1 C 5,6 km/h (1 Bft)
31.01.2015 13:55 2,4 C 1,5 C 58 % 63 % 984,5 hPa 0,0 l/m 4,2 km/h (1 Bft) N 360 -5,0 C 1,3 C 6,3 km/h (2 Bft)
31.01.2015 14:00 3,2 C 1,5 C 57 % 63 % 984,5 hPa 0,0 l/m 4,2 km/h (1 Bft) W 270 -4,5 C 3,1 C 4,3 km/h (1 Bft)
31.01.2015 14:05 4,1 C 1,6 C 56 % 63 % 984,5 hPa 0,0 l/m 2,9 km/h (1 Bft) W-SW 247 -3,9 C 5,9 C 2,3 km/h (1 Bft)
31.01.2015 14:10 4,4 C 1,6 C 55 % 63 % 985,4 hPa 0,0 l/m 2,1 km/h (1 Bft) W-SW 247 -3,8 C 6,9 C 2,3 km/h (1 Bft)
31.01.2015 14:15 4,0 C 1,6 C 52 % 62 % 985,4 hPa 0,0 l/m 2,4 km/h (1 Bft) W 270 -4,9 C 7,2 C 5,0 km/h (1 Bft)
31.01.2015 14:20 4,3 C 1,6 C 52 % 62 % 985,4 hPa 0,0 l/m 2,7 km/h (1 Bft) W-SW 247 -4,7 C 7,2 C 6,9 km/h (2 Bft)
31.01.2015 14:25 4,1 C 1,6 C 53 % 61 % 985,4 hPa 0,0 l/m 2,1 km/h (1 Bft) W 270 -4,6 C 7,0 C 3,1 km/h (1 Bft)
31.01.2015 14:30 3,5 C 1,6 C 53 % 61 % 986,2 hPa 0,0 l/m 1,8 km/h (1 Bft) W 270 -5,2 C 6,5 C 0,0 km/h (0 Bft)
31.01.2015 14:35 3,2 C 1,6 C 54 % 62 % 986,2 hPa 0,0 l/m 1,1 km/h (1 Bft) S 180 -5,2 C 5,8 C 0,0 km/h (0 Bft)
31.01.2015 14:40 3,1 C 1,6 C 55 % 62 % 986,2 hPa 0,0 l/m 0,6 km/h (0 Bft) W 270 -5,0 C 5,0 C 2,7 km/h (1 Bft)
31.01.2015 14:45 2,6 C 1,6 C 55 % 62 % 986,2 hPa 0,0 l/m 1,9 km/h (1 Bft) W 270 -5,5 C 4,3 C 3,5 km/h (1 Bft)
31.01.2015 14:50 2,7 C 1,6 C 56 % 62 % 986,1 hPa 0,0 l/m 2,4 km/h (1 Bft) W-SW 247 -5,2 C 4,0 C 3,1 km/h (1 Bft)
31.01.2015 14:55 2,4 C 1,6 C 56 % 62 % 986,1 hPa 0,0 l/m 2,9 km/h (1 Bft) W 270 -5,5 C 3,2 C 2,7 km/h (1 Bft)
31.01.2015 15:00 2,4 C 1,6 C 57 % 63 % 986,1 hPa 0,0 l/m 2,6 km/h (1 Bft) W 270 -5,2 C 3,0 C 2,3 km/h (1 Bft)
31.01.2015 15:05 2,0 C 1,6 C 57 % 63 % 986,1 hPa 0,0 l/m 2,6 km/h (1 Bft) W 270 -5,6 C 2,5 C 2,1 km/h (1 Bft)
31.01.2015 15:10 2,1 C 1,6 C 57 % 63 % 986,0 hPa 0,0 l/m 2,1 km/h (1 Bft) W-SW 247 -5,5 C 2,3 C 0,0 km/h (0 Bft)
31.01.2015 15:15 2,2 C 1,6 C 57 % 63 % 986,0 hPa 0,0 l/m 1,1 km/h (1 Bft) W-NW 292 -5,4 C 2,1 C 0,0 km/h (0 Bft)
31.01.2015 15:20 2,5 C 1,6 C 58 % 63 % 986,0 hPa 0,0 l/m 0,6 km/h (0 Bft) W-SW 247 -4,9 C 2,2 C 0,0 km/h (0 Bft)
31.01.2015 15:25 3,2 C 1,6 C 58 % 64 % 986,0 hPa 0,0 l/m 0,0 km/h (0 Bft) W 270 -4,3 C 2,6 C 0,0 km/h (0 Bft)
31.01.2015 15:30 3,6 C 1,6 C 58 % 64 % 985,9 hPa 0,0 l/m 0,0 km/h (0 Bft) W 270 -3,9 C 3,2 C 0,0 km/h (0 Bft)
31.01.2015 15:35 3,9 C 1,6 C 57 % 64 % 985,9 hPa 0,0 l/m 0,2 km/h (0 Bft) NW 315 -3,8 C 4,0 C 2,1 km/h (1 Bft)
31.01.2015 15:40 3,3 C 1,6 C 56 % 64 % 985,9 hPa 0,0 l/m 0,6 km/h (0 Bft) W 270 -4,6 C 4,2 C 4,2 km/h (1 Bft)
31.01.2015 15:45 2,1 C 1,6 C 57 % 63 % 985,9 hPa 0,0 l/m 2,3 km/h (1 Bft) W 270 -5,5 C 3,3 C 2,7 km/h (1 Bft)
31.01.2015 15:50 2,0 C 1,6 C 57 % 63 % 985,6 hPa 0,0 l/m 2,3 km/h (1 Bft) W 270 -5,6 C 2,7 C 3,2 km/h (1 Bft)
31.01.2015 15:55 1,5 C 1,5 C 58 % 64 % 985,6 hPa 0,0 l/m 2,3 km/h (1 Bft) W-SW 247 -5,8 C 2,1 C 5,3 km/h (1 Bft)
31.01.2015 16:00 1,3 C 1,5 C 59 % 64 % 985,6 hPa 0,0 l/m 2,4 km/h (1 Bft) SW 225 -5,8 C 1,6 C 0,0 km/h (0 Bft)
31.01.2015 16:05 1,0 C 1,5 C 59 % 64 % 985,6 hPa 0,0 l/m 1,4 km/h (1 Bft) SW 225 -6,1 C 1,0 C 3,5 km/h (1 Bft)
31.01.2015 16:10 0,9 C 1,5 C 59 % 65 % 985,5 hPa 0,0 l/m 1,0 km/h (0 Bft) W-SW 247 -6,2 C 0,6 C 0,0 km/h (0 Bft)
31.01.2015 16:15 0,7 C 1,5 C 60 % 65 % 985,5 hPa 0,0 l/m 1,0 km/h (0 Bft) S-SW 202 -6,2 C 0,3 C 0,0 km/h (0 Bft)
31.01.2015 16:20 0,6 C 1,5 C 61 % 66 % 985,5 hPa 0,0 l/m 0,8 km/h (0 Bft) SW 225 -6,0 C 0,1 C 2,4 km/h (1 Bft)
31.01.2015 16:25 0,1 C 1,5 C 61 % 66 % 985,5 hPa 0,0 l/m 0,5 km/h (0 Bft) S 180 -6,5 C -0,5 C 0,0 km/h (0 Bft)
31.01.2015 16:30 -0,2 C 1,5 C 62 % 67 % 985,4 hPa 0,0 l/m 0,6 km/h (0 Bft) SW 225 -6,6 C -0,8 C 1,9 km/h (1 Bft)
31.01.2015 16:35 -0,5 C 1,6 C 63 % 67 % 985,4 hPa 0,0 l/m 1,3 km/h (1 Bft) S-SO 157 -6,7 C -1,3 C 1,9 km/h (1 Bft)
31.01.2015 16:40 -0,8 C 1,6 C 63 % 68 % 985,4 hPa 0,0 l/m 1,1 km/h (1 Bft) S 180 -6,9 C -1,6 C 2,3 km/h (1 Bft)
31.01.2015 16:45 -1,2 C 1,6 C 65 % 68 % 985,4 hPa 0,0 l/m 0,8 km/h (0 Bft) S-SO 157 -6,9 C -1,9 C 0,0 km/h (0 Bft)
31.01.2015 16:50 -1,3 C 1,6 C 66 % 69 % 985,3 hPa 0,0 l/m 0,8 km/h (0 Bft) SO 135 -6,8 C -2,2 C 0,0 km/h (0 Bft)
31.01.2015 16:55 -1,6 C 1,6 C 67 % 69 % 985,3 hPa 0,0 l/m 1,0 km/h (0 Bft) SO 135 -6,9 C -2,5 C 1,8 km/h (1 Bft)
31.01.2015 17:00 -1,7 C 1,6 C 69 % 69 % 985,3 hPa 0,0 l/m 1,4 km/h (1 Bft) SO 135 -6,6 C -2,6 C 1,6 km/h (1 Bft)
31.01.2015 17:05 -1,9 C 1,5 C 69 % 71 % 985,3 hPa 0,0 l/m 1,0 km/h (0 Bft) SO 135 -6,8 C -2,9 C 1,8 km/h (1 Bft)
31.01.2015 17:10 -1,9 C 1,5 C 69 % 71 % 985,4 hPa 0,0 l/m 0,6 km/h (0 Bft) SO 135 -6,8 C -2,9 C 1,6 km/h (1 Bft)
31.01.2015 17:15 -2,0 C 1,5 C 69 % 72 % 985,4 hPa 0,0 l/m 0,5 km/h (0 Bft) S-SO 157 -6,9 C -3,0 C 0,0 km/h (0 Bft)
31.01.2015 17:20 -2,2 C 1,5 C 70 % 71 % 985,4 hPa 0,0 l/m 0,5 km/h (0 Bft) SO 135 -6,9 C -3,0 C 2,4 km/h (1 Bft)
31.01.2015 17:25 -2,5 C 1,5 C 70 % 72 % 985,4 hPa 0,0 l/m 0,3 km/h (0 Bft) S-SO 157 -7,2 C -3,2 C 0,0 km/h (0 Bft)
31.01.2015 17:30 -2,7 C 1,5 C 71 % 72 % 985,5 hPa 0,0 l/m 0,2 km/h (0 Bft) O-SO 112 -7,2 C -3,4 C 0,0 km/h (0 Bft)
31.01.2015 17:35 -2,6 C 1,5 C 73 % 73 % 985,5 hPa 0,0 l/m 0,2 km/h (0 Bft) S-SO 157 -6,8 C -3,5 C 0,0 km/h (0 Bft)
31.01.2015 17:40 -2,5 C 1,5 C 74 % 74 % 985,5 hPa 0,0 l/m 0,6 km/h (0 Bft) SO 135 -6,5 C -3,5 C 1,8 km/h (1 Bft)
31.01.2015 17:45 -2,5 C 1,5 C 74 % 75 % 985,5 hPa 0,0 l/m 0,6 km/h (0 Bft) S-SO 157 -6,5 C -3,5 C 0,0 km/h (0 Bft)
31.01.2015 17:50 -2,6 C 1,5 C 74 % 75 % 985,7 hPa 0,0 l/m 0,3 km/h (0 Bft) S-SW 202 -6,6 C -3,5 C 0,0 km/h (0 Bft)
31.01.2015 17:55 -2,9 C 1,5 C 74 % 75 % 985,7 hPa 0,0 l/m 0,0 km/h (0 Bft) SW 225 -6,9 C -3,7 C 0,0 km/h (0 Bft)
31.01.2015 18:00 -3,1 C 1,5 C 74 % 75 % 985,7 hPa 0,0 l/m 0,0 km/h (0 Bft) W-SW 247 -7,1 C -3,9 C 0,0 km/h (0 Bft)
31.01.2015 18:05 -3,2 C 1,5 C 75 % 75 % 985,7 hPa 0,0 l/m 0,0 km/h (0 Bft) S 180 -7,0 C -4,2 C 0,0 km/h (0 Bft)
31.01.2015 18:10 -3,2 C 1,5 C 75 % 76 % 985,9 hPa 0,0 l/m 0,0 km/h (0 Bft) S-SO 157 -7,0 C -4,3 C 0,0 km/h (0 Bft)
31.01.2015 18:15 -3,4 C 1,5 C 76 % 76 % 985,9 hPa 0,0 l/m 0,0 km/h (0 Bft) SW 225 -7,0 C -4,4 C 1,6 km/h (1 Bft)
31.01.2015 18:20 -3,4 C 1,5 C 76 % 76 % 985,9 hPa 0,0 l/m 0,0 km/h (0 Bft) SO 135 -7,0 C -4,4 C 0,0 km/h (0 Bft)
31.01.2015 18:25 -3,3 C 1,5 C 76 % 76 % 985,9 hPa 0,0 l/m 0,0 km/h (0 Bft) NO 45 -6,9 C -4,5 C 2,3 km/h (1 Bft)
31.01.2015 18:30 -3,2 C 1,5 C 76 % 77 % 986,1 hPa 0,0 l/m 0,0 km/h (0 Bft) S-SO 157 -6,8 C -4,4 C 0,0 km/h (0 Bft)
31.01.2015 18:35 -3,2 C 1,5 C 76 % 77 % 986,1 hPa 0,0 l/m 0,2 km/h (0 Bft) S-SO 157 -6,8 C -4,3 C 0,0 km/h (0 Bft)
31.01.2015 18:40 -3,3 C 1,5 C 76 % 76 % 986,1 hPa 0,0 l/m 0,0 km/h (0 Bft) W 270 -6,9 C -4,3 C 0,0 km/h (0 Bft)
31.01.2015 18:45 -3,8 C 1,5 C 76 % 76 % 986,1 hPa 0,0 l/m 0,0 km/h (0 Bft) SO 135 -7,4 C -4,4 C 0,0 km/h (0 Bft)
31.01.2015 18:50 -3,8 C 1,5 C 76 % 76 % 985,8 hPa 0,0 l/m 0,0 km/h (0 Bft) S 180 -7,4 C -4,5 C 0,0 km/h (0 Bft)
31.01.2015 18:55 -3,8 C 1,5 C 76 % 76 % 985,8 hPa 0,0 l/m 0,0 km/h (0 Bft) S 180 -7,4 C -4,6 C 0,0 km/h (0 Bft)
31.01.2015 19:00 -3,8 C 1,5 C 76 % 77 % 985,8 hPa 0,0 l/m 0,0 km/h (0 Bft) O-SO 112 -7,4 C -4,6 C 0,0 km/h (0 Bft)
31.01.2015 19:05 -3,9 C 1,5 C 76 % 77 % 985,8 hPa 0,0 l/m 0,0 km/h (0 Bft) O-SO 112 -7,5 C -4,6 C 0,0 km/h (0 Bft)
31.01.2015 19:10 -3,9 C 1,5 C 77 % 77 % 986,3 hPa 0,0 l/m 0,0 km/h (0 Bft) S 180 -7,3 C -4,7 C 0,0 km/h (0 Bft)
31.01.2015 19:15 -3,8 C 1,5 C 77 % 77 % 986,3 hPa 0,0 l/m 0,0 km/h (0 Bft) S 180 -7,2 C -4,6 C 0,0 km/h (0 Bft)
31.01.2015 19:20 -3,8 C 1,5 C 77 % 77 % 986,3 hPa 0,0 l/m 0,0 km/h (0 Bft) O-SO 112 -7,2 C -4,5 C 0,0 km/h (0 Bft)
31.01.2015 19:25 -3,5 C 1,5 C 78 % 78 % 986,3 hPa 0,0 l/m 0,0 km/h (0 Bft) SO 135 -6,8 C -4,4 C 0,0 km/h (0 Bft)
31.01.2015 19:30 -3,5 C 1,5 C 78 % 78 % 986,3 hPa 0,0 l/m 0,0 km/h (0 Bft) SO 135 -6,8 C -4,4 C 0,0 km/h (0 Bft)
31.01.2015 19:35 -3,8 C 1,5 C 78 % 78 % 986,3 hPa 0,0 l/m 0,0 km/h (0 Bft) W-SW 247 -7,1 C -4,4 C 0,0 km/h (0 Bft)
31.01.2015 19:40 -3,9 C 1,5 C 78 % 78 % 986,3 hPa 0,0 l/m 0,0 km/h (0 Bft) W-SW 247 -7,2 C -4,4 C 0,0 km/h (0 Bft)
31.01.2015 19:45 -3,8 C 1,5 C 78 % 78 % 986,3 hPa 0,0 l/m 0,0 km/h (0 Bft) SW 225 -7,1 C -4,4 C 0,0 km/h (0 Bft)
31.01.2015 19:50 -3,9 C 1,5 C 78 % 78 % 986,5 hPa 0,0 l/m 0,0 km/h (0 Bft) W-SW 247 -7,2 C -4,4 C 0,0 km/h (0 Bft)
31.01.2015 19:55 -4,1 C 1,5 C 78 % 78 % 986,5 hPa 0,0 l/m 0,0 km/h (0 Bft) W-SW 247 -7,4 C -4,5 C 0,0 km/h (0 Bft)
31.01.2015 20:00 -4,0 C 1,5 C 78 % 78 % 986,5 hPa 0,0 l/m 0,0 km/h (0 Bft) S 180 -7,3 C -4,6 C 0,0 km/h (0 Bft)
31.01.2015 20:05 -4,0 C 1,5 C 78 % 78 % 986,5 hPa 0,0 l/m 0,0 km/h (0 Bft) S 180 -7,3 C -4,6 C 0,0 km/h (0 Bft)
31.01.2015 20:10 -4,3 C 1,5 C 78 % 78 % 986,7 hPa 0,0 l/m 0,0 km/h (0 Bft) S 180 -7,5 C -4,7 C 0,0 km/h (0 Bft)
31.01.2015 20:15 -4,1 C 1,5 C 79 % 79 % 986,7 hPa 0,0 l/m 0,0 km/h (0 Bft) W-NW 292 -7,2 C -4,9 C 0,0 km/h (0 Bft)
31.01.2015 20:20 -4,0 C 1,5 C 79 % 79 % 986,7 hPa 0,0 l/m 0,3 km/h (0 Bft) SW 225 -7,1 C -5,0 C 2,3 km/h (1 Bft)
31.01.2015 20:25 -4,2 C 1,5 C 79 % 79 % 986,7 hPa 0,0 l/m 0,8 km/h (0 Bft) O-SO 112 -7,3 C -5,0 C 0,0 km/h (0 Bft)
31.01.2015 20:30 -4,3 C 1,5 C 79 % 79 % 986,7 hPa 0,0 l/m 0,5 km/h (0 Bft) SO 135 -7,4 C -5,1 C 0,0 km/h (0 Bft)
31.01.2015 20:35 -4,3 C 1,5 C 79 % 79 % 986,7 hPa 0,0 l/m 0,0 km/h (0 Bft) NO 45 -7,4 C -5,2 C 0,0 km/h (0 Bft)
31.01.2015 20:40 -4,2 C 1,5 C 79 % 79 % 986,7 hPa 0,0 l/m 0,0 km/h (0 Bft) SO 135 -7,3 C -5,2 C 0,0 km/h (0 Bft)
31.01.2015 20:45 -3,8 C 1,5 C 79 % 79 % 986,7 hPa 0,0 l/m 0,5 km/h (0 Bft) O-SO 112 -6,9 C -5,0 C 2,4 km/h (1 Bft)
31.01.2015 20:50 -3,3 C 1,5 C 80 % 80 % 986,8 hPa 0,0 l/m 1,3 km/h (1 Bft) S 180 -6,2 C -4,6 C 0,0 km/h (0 Bft)
31.01.2015 20:55 -3,2 C 1,5 C 80 % 80 % 986,8 hPa 0,0 l/m 2,1 km/h (1 Bft) SO 135 -6,1 C -4,0 C 0,0 km/h (0 Bft)
31.01.2015 21:00 -3,1 C 1,5 C 80 % 80 % 986,8 hPa 0,0 l/m 1,1 km/h (1 Bft) W-SW 247 -6,0 C -3,8 C 0,0 km/h (0 Bft)
31.01.2015 21:05 -3,2 C 1,5 C 79 % 79 % 986,8 hPa 0,0 l/m 0,0 km/h (0 Bft) NO 45 -6,3 C -3,6 C 0,0 km/h (0 Bft)
31.01.2015 21:10 -3,4 C 1,5 C 79 % 79 % 987,2 hPa 0,0 l/m 0,0 km/h (0 Bft) O-NO 67 -6,5 C -3,7 C 0,0 km/h (0 Bft)
31.01.2015 21:15 -3,4 C 1,5 C 79 % 79 % 987,2 hPa 0,0 l/m 0,0 km/h (0 Bft) O-NO 67 -6,5 C -3,9 C 0,0 km/h (0 Bft)
31.01.2015 21:20 -3,3 C 1,5 C 79 % 79 % 987,2 hPa 0,0 l/m 0,5 km/h (0 Bft) S 180 -6,4 C -4,0 C 0,0 km/h (0 Bft)
31.01.2015 21:25 -3,5 C 1,5 C 79 % 79 % 987,2 hPa 0,0 l/m 0,5 km/h (0 Bft) O-SO 112 -6,6 C -4,1 C 0,0 km/h (0 Bft)
31.01.2015 21:30 -3,9 C 1,5 C 79 % 79 % 987,2 hPa 0,0 l/m 0,0 km/h (0 Bft) S 180 -7,0 C -4,3 C 0,0 km/h (0 Bft)
31.01.2015 21:35 -3,7 C 1,5 C 79 % 79 % 987,2 hPa 0,0 l/m 0,5 km/h (0 Bft) S-SW 202 -6,8 C -4,4 C 0,0 km/h (0 Bft)
31.01.2015 21:40 -3,6 C 1,5 C 79 % 79 % 987,2 hPa 0,0 l/m 1,3 km/h (1 Bft) S-SO 157 -6,7 C -4,4 C 2,3 km/h (1 Bft)
31.01.2015 21:45 -3,2 C 1,5 C 79 % 79 % 987,2 hPa 0,0 l/m 2,6 km/h (1 Bft) SO 135 -6,3 C -4,8 C 3,2 km/h (1 Bft)
31.01.2015 21:50 -3,6 C 1,5 C 79 % 79 % 987,2 hPa 0,0 l/m 2,1 km/h (1 Bft) S 180 -6,7 C -4,2 C 0,0 km/h (0 Bft)
31.01.2015 21:55 -3,7 C 1,5 C 79 % 79 % 987,2 hPa 0,0 l/m 1,6 km/h (1 Bft) SO 135 -6,8 C -4,4 C 2,3 km/h (1 Bft)
31.01.2015 22:00 -3,7 C 1,5 C 79 % 79 % 987,2 hPa 0,0 l/m 1,6 km/h (1 Bft) S-SO 157 -6,8 C -4,4 C 0,0 km/h (0 Bft)
31.01.2015 22:05 -4,1 C 1,5 C 79 % 79 % 987,2 hPa 0,0 l/m 0,8 km/h (0 Bft) O-NO 67 -7,2 C -4,7 C 0,0 km/h (0 Bft)
31.01.2015 22:10 -4,2 C 1,5 C 79 % 79 % 987,2 hPa 0,0 l/m 0,6 km/h (0 Bft) N-NW 337 -7,3 C -5,0 C 2,4 km/h (1 Bft)
31.01.2015 22:15 -4,7 C 1,5 C 79 % 79 % 987,2 hPa 0,0 l/m 0,3 km/h (0 Bft) S 180 -7,8 C -5,5 C 0,0 km/h (0 Bft)
31.01.2015 22:20 -4,6 C 1,5 C 79 % 79 % 987,2 hPa 0,0 l/m 0,3 km/h (0 Bft) SW 225 -7,7 C -5,6 C 2,3 km/h (1 Bft)
31.01.2015 22:25 -3,6 C 1,5 C 80 % 80 % 987,2 hPa 0,0 l/m 2,3 km/h (1 Bft) W-SW 247 -6,5 C -5,3 C 6,8 km/h (2 Bft)
31.01.2015 22:30 -3,4 C 1,5 C 80 % 80 % 987,3 hPa 0,0 l/m 3,5 km/h (1 Bft) S-SW 202 -6,3 C -6,0 C 4,2 km/h (1 Bft)
31.01.2015 22:35 -3,4 C 1,5 C 80 % 80 % 987,3 hPa 0,0 l/m 3,7 km/h (1 Bft) S-SO 157 -6,3 C -5,9 C 3,9 km/h (1 Bft)
31.01.2015 22:40 -3,2 C 1,5 C 80 % 80 % 987,3 hPa 0,0 l/m 3,4 km/h (1 Bft) SW 225 -6,1 C -5,6 C 3,4 km/h (1 Bft)
31.01.2015 22:45 -3,2 C 1,5 C 80 % 80 % 987,3 hPa 0,0 l/m 3,2 km/h (1 Bft) SW 225 -6,1 C -5,2 C 3,1 km/h (1 Bft)
31.01.2015 22:50 -3,2 C 1,5 C 80 % 80 % 987,3 hPa 0,0 l/m 3,1 km/h (1 Bft) SW 225 -6,1 C -5,0 C 4,2 km/h (1 Bft)
31.01.2015 22:55 -3,0 C 1,5 C 80 % 80 % 987,3 hPa 0,0 l/m 3,5 km/h (1 Bft) S-SW 202 -6,0 C -5,1 C 4,5 km/h (1 Bft)
31.01.2015 23:00 -3,1 C 1,5 C 79 % 79 % 987,3 hPa 0,0 l/m 3,7 km/h (1 Bft) S 180 -6,2 C -5,1 C 3,7 km/h (1 Bft)
31.01.2015 23:05 -3,3 C 1,5 C 79 % 79 % 987,3 hPa 0,0 l/m 3,4 km/h (1 Bft) SW 225 -6,4 C -5,0 C 5,0 km/h (1 Bft)
31.01.2015 23:10 -3,4 C 1,5 C 79 % 79 % 987,5 hPa 0,0 l/m 3,2 km/h (1 Bft) SW 225 -6,5 C -5,1 C 1,8 km/h (1 Bft)
31.01.2015 23:15 -3,4 C 1,5 C 79 % 79 % 987,5 hPa 0,0 l/m 2,9 km/h (1 Bft) SW 225 -6,5 C -5,0 C 1,8 km/h (1 Bft)
31.01.2015 23:20 -3,5 C 1,5 C 79 % 79 % 987,5 hPa 0,0 l/m 2,4 km/h (1 Bft) SW 225 -6,6 C -4,6 C 2,4 km/h (1 Bft)
31.01.2015 23:25 -3,5 C 1,5 C 79 % 79 % 987,5 hPa 0,0 l/m 2,1 km/h (1 Bft) SW 225 -6,6 C -4,4 C 4,3 km/h (1 Bft)
31.01.2015 23:30 -3,7 C 1,5 C 79 % 79 % 987,5 hPa 0,0 l/m 1,8 km/h (1 Bft) S-SW 202 -6,8 C -4,4 C 1,9 km/h (1 Bft)
31.01.2015 23:35 -3,8 C 1,5 C 79 % 79 % 987,5 hPa 0,0 l/m 1,0 km/h (0 Bft) SW 225 -6,9 C -4,5 C 2,3 km/h (1 Bft)
31.01.2015 23:40 -3,9 C 1,5 C 79 % 79 % 987,5 hPa 0,0 l/m 0,5 km/h (0 Bft) SO 135 -7,0 C -4,5 C 0,0 km/h (0 Bft)
31.01.2015 23:45 -3,7 C 1,5 C 79 % 79 % 987,5 hPa 0,0 l/m 0,6 km/h (0 Bft) S 180 -6,8 C -4,6 C 3,2 km/h (1 Bft)
31.01.2015 23:50 -3,5 C 1,5 C 79 % 79 % 987,7 hPa 0,0 l/m 1,1 km/h (1 Bft) SW 225 -6,6 C -4,4 C 3,1 km/h (1 Bft)
31.01.2015 23:55 -3,8 C 1,5 C 79 % 79 % 987,7 hPa 0,0 l/m 1,3 km/h (1 Bft) SW 225 -6,9 C -4,4 C 0,0 km/h (0 Bft)
_ Min-Zeit 22:15 23:55 14:20 14:30 00:05 - 21:30 - - 22:15 01:55 23:55
Minimum _ -4,7 C 1,5 C 52 % 61 % 979,7 hPa - 0,0 km/h (0 Bft) - - -7,8 C -9,5 C 0,0 km/h (0 Bft)
_ Max-Zeit 14:10 17:00 04:30 04:30 23:55 23:55 01:55 - - 15:35 14:20 01:45
Maximum _ 4,4 C 1,6 C 82 % 82 % 987,7 hPa 0,0 l/m 9,0 km/h
W (2 Bft)
- - -3,8 C 7,2 C 20,1 km/h
W-SW (4 Bft)
Durchschnitt _ -1,8 C 1,5 C 73 % 75 % 984,2 hPa #0,0 l/m 3,1 km/h (1 Bft) W-SW - -6,1 C -3,4 C 4,1 km/h (1 Bft)